Weather History for Hato Airport, Curacao, Curacao

Change the Weather History Date:

Saturday, October 13, 2012

  Actual Average Record
Temperature  
Mean Temperature 82 °F -  
Max Temperature 87 °F 87 °F - ()
Min Temperature 76 °F 77 °F - ()
Cooling Degree Days 16    
Growing Degree Days 32 (Base 50)    
Moisture  
Dew Point 75 °F    
Average Humidity 77    
Maximum Humidity 89    
Minimum Humidity 61    
Precipitation  
Precipitation 0.51 in 0.12 in - ()
Sea Level Pressure  
Sea Level Pressure 29.80 in    
Wind  
Wind Speed 3 mph ()    
Max Wind Speed 9 mph    
Max Gust Speed -    
Visibility 6.1 miles    
Events Rain    
T = Trace of Precipitation, MM = Missing Value Source: Averaged Metar Reports

Daily Weather History Graph

Daily Weather History Graph

Search for Another Location

Airport:

Trip Planner

Search our weather history database for the weather conditions in past years. The results will help you decide how hot, cold, wet, or windy it might be!

Date:

Astronomy

Oct. 13, 2012 Rise Set
Actual Time 6:25 AM AST 6:18 PM AST
Civil Twilight 6:04 AM AST 6:39 PM AST
Nautical Twilight 5:39 AM AST 7:04 PM AST
Astronomical Twilight 5:14 AM AST 7:28 PM AST
Moon 4:28 AM AST (10/13) 4:49 PM AST (10/13)
Length of Visible Light 12h 35m
Length of Day
11h 52m
Waning Crescent, 5% of the Moon is Illuminated
Oct 13
Waning Crescent
Oct 15
New
Oct 21
First Quarter
Oct 29
Full
Nov 6
Last Quarter

Hourly Weather History & Observations

Time (AST) Temp. Heat Index Dew Point Humidity Pressure Visibility Wind Dir Wind Speed Gust Speed Precip Events Conditions
12:00 AM 82.4 °F 89.5 °F 75.2 °F 79% 29.83 in 6.2 mi Variable 3.5 mph - N/A   Partly Cloudy
1:00 AM 80.6 °F 86.2 °F 75.2 °F 84% 29.83 in 6.2 mi Variable 1.2 mph - N/A   Partly Cloudy
2:00 AM 80.6 °F 86.2 °F 75.2 °F 84% 29.80 in 6.2 mi ENE 3.5 mph - N/A   Partly Cloudy
3:00 AM 78.8 °F - 75.2 °F 89% 29.80 in 6.2 mi South 2.3 mph - N/A   Partly Cloudy
4:00 AM 78.8 °F - 75.2 °F 89% 29.77 in 6.2 mi Variable 1.2 mph - N/A   Unknown
5:00 AM 77.0 °F - 73.4 °F 89% 29.80 in 6.2 mi South 1.2 mph - N/A   Partly Cloudy
7:00 AM 78.8 °F - 75.2 °F 89% 29.83 in 6.2 mi SSW 3.5 mph - N/A   Partly Cloudy
8:00 AM 87 °F - 75 °F 61% 29.85 in 31 mi 2.3 mph - -   Scattered Clouds
8:00 AM 87.8 °F 97.6 °F 75.2 °F 66% 29.83 in 6.2 mi Variable 2.3 mph - N/A   Partly Cloudy
9:00 AM 84.2 °F 92.3 °F 75.2 °F 74% 29.83 in 6.2 mi Variable 3.5 mph - N/A   Partly Cloudy
10:00 AM 84.2 °F 90.9 °F 73.4 °F 70% 29.86 in 6.2 mi NNE 3.5 mph - N/A Rain Light Rain Showers
11:00 AM 77.0 °F - 71.6 °F 83% 29.86 in 5.0 mi East 4.6 mph - N/A Rain Rain Showers
12:00 PM 82.4 °F 89.5 °F 75.2 °F 79% 29.83 in 6.2 mi Variable 3.5 mph - N/A Rain Rain Showers
1:00 PM 84.2 °F 92.3 °F 75.2 °F 74% 29.80 in 6.2 mi Variable 3.5 mph - N/A   Partly Cloudy
2:00 PM 86 °F - 77 °F 67% 29.79 in 25 mi NNE 5.8 mph - -   Partly Cloudy
2:00 PM 86.0 °F 96.9 °F 77.0 °F 74% 29.77 in 6.2 mi NNE 5.8 mph - N/A   Partly Cloudy
3:00 PM 86.0 °F 95.1 °F 75.2 °F 70% 29.74 in 6.2 mi NNE 5.8 mph - N/A   Partly Cloudy
4:00 PM 86.0 °F 96.9 °F 77.0 °F 74% 29.74 in 6.2 mi North 5.8 mph - N/A   Partly Cloudy
5:00 PM 84 °F - 74 °F 66% 29.74 in 25 mi North 9.2 mph - -   Scattered Clouds
5:00 PM 84.2 °F 92.3 °F 75.2 °F 74% 29.74 in 6.2 mi North 8.1 mph - N/A   Partly Cloudy
6:00 PM 82.4 °F 89.5 °F 75.2 °F 79% 29.74 in 6.2 mi North 6.9 mph - N/A   Partly Cloudy
7:00 PM 82.4 °F 89.5 °F 75.2 °F 79% 29.77 in 6.2 mi North 5.8 mph - N/A   Partly Cloudy
8:00 PM 84 °F - 76 °F 72% 29.79 in 25 mi North 4.6 mph - -   Scattered Clouds
8:00 PM 84.2 °F 94.1 °F 77.0 °F 79% 29.80 in 6.2 mi North 5.8 mph - N/A   Partly Cloudy
9:00 PM 84.2 °F 94.1 °F 77.0 °F 79% 29.80 in 6.2 mi North 6.9 mph - N/A   Partly Cloudy
10:00 PM 84.2 °F 94.1 °F 77.0 °F 79% 29.83 in 6.2 mi North 2.3 mph - N/A   Partly Cloudy
11:00 PM 84.2 °F 94.1 °F 77.0 °F 79% 29.83 in 6.2 mi North 3.5 mph - N/A   Scattered Clouds